N7NKE Weather Reports


Display with metric or nautical units.
time (UTC)temp
F
wind
direction
speed
MPH
gust
MPH
rain 1hr
in
rain 24hr
in
rain mn
in
humidity
%
barometer
mb
20260905200505 64 240 3.0 6.0 0.00 0.02 0.00 72 1017.0
20260905200005 63 223 3.0 6.0 0.00 0.02 0.00 73 1017.0
20260905195505 63 273 3.0 7.0 0.00 0.02 0.00 72 1017.0
20260905195005 63 295 3.0 8.0 0.00 0.02 0.00 73 1017.0
20260905194005 63 249 5.0 8.0 0.00 0.02 0.00 74 1017.0
20260905193505 64 232 2.0 7.0 0.00 0.02 0.00 76 1017.1
20260905193005 64 280 4.0 7.0 0.00 0.02 0.00 76 1017.2
20260905192505 64 239 3.0 5.0 0.00 0.02 0.00 76 1017.2
20260905192005 64 247 3.0 6.0 0.00 0.02 0.00 75 1017.1
20260905191005 64 202 3.0 5.0 0.00 0.02 0.00 76 1017.1
20260905190505 64 219 3.0 6.0 0.00 0.02 0.00 75 1017.1
20260905190005 64 219 1.0 3.0 0.00 0.02 0.00 76 1017.2
20260905185505 64 212 2.0 3.0 0.00 0.02 0.00 75 1017.2
20260905185005 63 221 1.0 3.0 0.00 0.02 0.00 75 1017.2
20260905184505 63 227 1.0 3.0 0.00 0.02 0.00 74 1017.2
20260905183005 64 86 0.0 3.0 0.00 0.02 0.00 74 1017.4
20260905182005 64 212 1.0 2.0 0.00 0.02 0.00 76 1017.4
20260905181005 63 339 1.0 2.0 0.00 0.02 0.00 78 1017.5
20260905180505 63 300 2.0 3.0 0.00 0.02 0.00 78 1017.5
20260905175505 63 74 2.0 5.0 0.00 0.02 0.00 80 1017.6
20260905175005 63 28 0.0 2.0 0.00 0.02 0.00 79 1017.5
20260905174505 62 104 0.0 5.0 0.00 0.02 0.00 79 1017.5
20260905174005 63 92 3.0 6.0 0.00 0.02 0.00 81 1017.5
20260905173505 62 44 1.0 2.0 0.00 0.02 0.00 79 1017.5
20260905173005 61 50 1.0 2.0 0.00 0.02 0.00 84 1017.6
20260905172505 60 72 0.0 3.0 0.00 0.02 0.00 86 1017.5
20260905172005 60 85 1.0 5.0 0.00 0.02 0.00 86 1017.6
20260905171505 60 0 2.0 5.0 0.00 0.02 0.00 86 1017.6
20260905171005 60 29 1.0 3.0 0.00 0.02 0.00 87 1017.5
20260905170505 60 34 1.0 2.0 0.00 0.02 0.00 88 1017.5
20260905170005 59 33 1.0 2.0 0.00 0.02 0.00 88 1017.5
20260905165505 59 59 1.0 2.0 0.00 0.02 0.00 88 1017.5
20260905165005 59 93 2.0 3.0 0.00 0.02 0.00 89 1017.5
20260905164505 58 75 1.0 3.0 0.00 0.02 0.00 89 1017.5
20260905163505 58 39 1.0 3.0 0.00 0.03 0.00 90 1017.5
20260905163005 58 0 2.0 3.0 0.00 0.03 0.00 90 1017.4
20260905162004 58 76 2.0 3.0 0.00 0.03 0.00 90 1017.5
20260905161505 57 73 1.0 2.0 0.00 0.03 0.00 90 1017.5
20260905161005 57 74 1.0 3.0 0.00 0.03 0.00 90 1017.5
20260905160005 57 99 1.0 2.0 0.00 0.03 0.00 90 1017.5
20260905155505 57 103 1.0 1.0 0.00 0.03 0.00 91 1017.5
20260905154005 56 104 1.0 2.0 0.00 0.03 0.00 91 1017.4
20260905153504 56 71 1.0 2.0 0.00 0.03 0.00 91 1017.5
20260905153005 56 66 0.0 2.0 0.00 0.03 0.00 91 1017.5
20260905152505 56 65 0.0 2.0 0.00 0.03 0.00 91 1017.5
20260905152005 56 61 1.0 2.0 0.00 0.03 0.00 91 1017.5
20260905151505 56 79 1.0 2.0 0.00 0.03 0.00 91 1017.5
20260905151005 56 82 2.0 2.0 0.00 0.03 0.00 91 1017.4
20260905150504 56 66 2.0 3.0 0.00 0.03 0.00 91 1017.4
20260905145506 56 126 0.0 1.0 0.00 0.03 0.00 91 1017.4
20260905145005 56 126 0.0 2.0 0.00 0.03 0.00 91 1017.4
20260905144505 56 127 1.0 2.0 0.00 0.03 0.00 91 1017.3
20260905144005 55 126 0.0 2.0 0.00 0.03 0.00 91 1017.3
20260905143505 55 126 0.0 2.0 0.00 0.03 0.00 91 1017.3
20260905143005 55 126 0.0 2.0 0.00 0.03 0.00 91 1017.3
20260905142504 54 126 0.0 2.0 0.00 0.03 0.00 91 1017.3
20260905141505 54 126 0.0 2.0 0.00 0.03 0.00 91 1017.3
20260905141005 54 126 0.0 2.0 0.00 0.03 0.00 91 1017.3
20260905140005 54 126 0.0 1.0 0.00 0.03 0.00 91 1017.2
20260905135504 54 126 0.0 2.0 0.00 0.03 0.00 91 1017.2
20260905135005 54 126 1.0 2.0 0.00 0.03 0.00 91 1017.2
20260905134505 54 126 1.0 2.0 0.00 0.03 0.00 91 1017.2
20260905134004 54 86 0.0 2.0 0.00 0.03 0.00 91 1017.2
20260905133504 54 86 0.0 2.0 0.00 0.03 0.00 91 1017.2
20260905133005 54 86 0.0 2.0 0.00 0.03 0.00 91 1017.1
20260905132504 54 86 0.0 2.0 0.00 0.04 0.00 91 1017.2
20260905132004 54 86 0.0 0.0 0.00 0.05 0.00 91 1017.1
20260905131505 54 86 0.0 1.0 0.00 0.05 0.00 91 1017.2
20260905130504 54 86 0.0 0.0 0.00 0.06 0.00 91 1017.1
20260905130004 54 86 0.0 0.0 0.00 0.07 0.00 91 1017.1
20260905125505 54 86 0.0 0.0 0.00 0.07 0.00 91 1017.1
20260905125005 54 86 0.0 0.0 0.00 0.07 0.00 91 1017.1
20260905124505 54 86 0.0 0.0 0.00 0.08 0.00 91 1017.0
20260905124005 54 86 0.0 0.0 0.00 0.09 0.00 91 1017.0
20260905123505 54 86 0.0 0.0 0.00 0.09 0.00 91 1017.0
20260905123005 54 86 0.0 0.0 0.00 0.10 0.00 91 1017.0
20260905122504 54 86 0.0 0.0 0.00 0.11 0.00 91 1017.0
20260905122004 54 86 0.0 0.0 0.00 0.12 0.00 91 1017.0
20260905121505 54 86 0.0 0.0 0.00 0.13 0.00 91 1016.9
20260905121005 54 86 0.0 0.0 0.00 0.14 0.00 91 1016.9
20260905120005 54 86 0.0 1.0 0.00 0.15 0.00 91 1016.8
20260905115505 54 86 1.0 2.0 0.00 0.16 0.00 91 1016.9
20260905115005 54 86 1.0 2.0 0.00 0.16 0.00 91 1016.8
20260905114005 54 86 0.0 0.0 0.00 0.16 0.00 91 1016.8
20260905113505 54 86 1.0 2.0 0.00 0.16 0.00 91 1016.7
20260905113005 54 86 0.0 0.0 0.00 0.16 0.00 91 1016.7
20260905112505 53 86 0.0 1.0 0.00 0.16 0.00 91 1016.7
20260905112004 53 86 0.0 0.0 0.00 0.16 0.00 91 1016.8
20260905111505 53 86 0.0 0.0 0.00 0.16 0.00 91 1016.8
20260905111004 53 86 0.0 0.0 0.00 0.16 0.00 91 1016.8
20260905110505 53 86 0.0 2.0 0.00 0.16 0.00 91 1016.9
20260905110005 53 86 1.0 2.0 0.00 0.17 0.00 91 1016.8
20260905103505 53 86 0.0 0.0 0.00 0.17 0.00 91 1016.9
20260905103005 53 86 0.0 1.0 0.00 0.17 0.00 91 1017.0
20260905102505 53 86 1.0 1.0 0.00 0.17 0.00 91 1016.9
20260905101505 53 86 0.0 2.0 0.00 0.17 0.00 91 1016.9
20260905101005 53 86 0.0 0.0 0.00 0.17 0.00 91 1016.9
20260905095505 53 86 0.0 0.0 0.00 0.17 0.00 91 1017.0
20260905095004 53 86 0.0 0.0 0.00 0.17 0.00 91 1017.0
20260905094505 53 86 0.0 0.0 0.00 0.17 0.00 91 1016.9
20260905093505 53 159 1.0 2.0 0.00 0.17 0.00 91 1016.9
20260905093005 53 164 0.0 1.0 0.00 0.17 0.00 91 1016.8
20260905092505 53 164 0.0 0.0 0.00 0.17 0.00 91 1016.8
20260905091505 53 164 0.0 2.0 0.00 0.17 0.00 91 1016.7
20260905091004 53 164 1.0 2.0 0.00 0.17 0.00 91 1016.7
20260905090505 53 175 0.0 2.0 0.00 0.17 0.00 91 1016.7
20260905090005 53 175 1.0 2.0 0.00 0.17 0.00 91 1016.6
20260905085505 53 227 1.0 1.0 0.00 0.17 0.00 91 1016.7
20260905084505 53 304 0.0 1.0 0.00 0.17 0.00 91 1016.5
20260905084005 52 304 0.0 2.0 0.00 0.17 0.00 91 1016.5
20260905083505 52 304 0.0 2.0 0.00 0.17 0.00 90 1016.5
20260905083005 52 304 1.0 2.0 0.00 0.17 0.00 90 1016.6
20260905082505 52 302 1.0 1.0 0.00 0.17 0.00 90 1016.5
20260905082005 52 302 1.0 2.0 0.00 0.17 0.00 91 1016.4
20260905081505 52 327 0.0 0.0 0.00 0.17 0.00 90 1016.4
20260905081005 52 327 0.0 2.0 0.00 0.17 0.00 90 1016.5
20260905080504 53 327 1.0 2.0 0.00 0.17 0.00 90 1016.4
20260905080005 53 269 0.0 2.0 0.00 0.17 0.00 90 1016.4
20260905075505 53 269 1.0 2.0 0.00 0.17 0.00 90 1016.3
20260905075005 53 269 1.0 2.0 0.00 0.17 0.00 90 1016.3
20260905074505 53 236 2.0 2.0 0.00 0.17 0.00 90 1016.3
20260905073005 52 197 1.0 2.0 0.00 0.17 0.00 90 1016.2
20260905072504 52 196 0.0 2.0 0.00 0.17 0.00 90 1016.2
20260905072005 52 201 1.0 2.0 0.00 0.17 0.00 90 1016.2
20260905071004 52 246 0.0 0.0 0.00 0.17 0.00 90 1016.2
20260905070505 52 246 0.0 0.0 0.00 0.17 0.00 90 1016.2
20260905070005 52 246 0.0 0.0 0.00 0.17 0.00 90 1016.2
20260905065504 53 246 0.0 0.0 0.00 0.17 0.17 90 1016.2
20260905065005 53 246 0.0 0.0 0.00 0.17 0.17 90 1016.1
20260905064505 53 246 0.0 2.0 0.00 0.17 0.17 90 1016.0
20260905064004 53 246 0.0 2.0 0.00 0.17 0.17 90 1016.0
20260905063505 53 246 0.0 0.0 0.00 0.17 0.17 90 1016.0
20260905063005 53 246 0.0 0.0 0.00 0.17 0.17 90 1016.0
20260905062505 53 246 0.0 0.0 0.00 0.17 0.17 90 1015.9
20260905062004 54 246 1.0 1.0 0.00 0.17 0.17 90 1015.9
20260905061504 54 246 0.0 0.0 0.00 0.17 0.17 90 1015.8
20260905061005 54 246 1.0 2.0 0.00 0.17 0.17 89 1015.8
20260905060504 54 225 1.0 2.0 0.00 0.17 0.17 89 1015.7
20260905060005 54 225 1.0 2.0 0.00 0.17 0.17 89 1015.8
20260905055504 54 5 1.0 2.0 0.00 0.17 0.17 89 1015.9
20260905055005 55 7 1.0 2.0 0.00 0.17 0.17 89 1015.8
20260905054505 55 9 0.0 0.0 0.00 0.17 0.17 89 1015.8
20260905054005 55 9 0.0 2.0 0.00 0.17 0.17 89 1015.9
20260905053505 55 5 0.0 2.0 0.00 0.17 0.17 89 1015.9
20260905053005 55 5 0.0 0.0 0.00 0.17 0.17 89 1015.9
20260905052505 55 6 0.0 2.0 0.00 0.17 0.17 89 1015.8
20260905052004 56 5 0.0 2.0 0.00 0.17 0.17 89 1015.8
20260905051005 56 288 0.0 2.0 0.00 0.17 0.17 89 1015.8
20260905050504 56 288 1.0 1.0 0.00 0.17 0.17 89 1015.8
20260905050005 56 288 0.0 2.0 0.00 0.17 0.17 89 1015.8
20260905045504 56 287 0.0 0.0 0.00 0.17 0.17 89 1015.8
20260905045004 56 287 0.0 0.0 0.00 0.17 0.17 89 1015.8
20260905044005 56 288 0.0 2.0 0.00 0.17 0.17 89 1015.8
20260905043505 56 288 1.0 1.0 0.00 0.17 0.17 89 1015.8
20260905043005 56 288 0.0 0.0 0.00 0.17 0.17 89 1015.8
20260905042505 56 288 0.0 0.0 0.00 0.17 0.17 89 1015.8
20260905042005 56 288 0.0 1.0 0.00 0.17 0.17 89 1015.7
20260905041505 56 288 0.0 2.0 0.00 0.17 0.17 89 1015.7
20260905041005 56 288 1.0 2.0 0.00 0.17 0.17 89 1015.7
20260905040504 56 352 0.0 1.0 0.00 0.17 0.17 88 1015.6
20260905035505 56 252 0.0 1.0 0.00 0.17 0.17 88 1015.6
20260905035004 56 251 0.0 2.0 0.00 0.17 0.17 88 1015.5
20260905034504 56 251 1.0 1.0 0.00 0.17 0.17 88 1015.4
20260905034005 56 252 0.0 1.0 0.00 0.17 0.17 88 1015.4
20260905033505 56 252 0.0 2.0 0.00 0.17 0.17 88 1015.4
20260905033005 57 251 2.0 2.0 0.00 0.17 0.17 88 1015.2
20260905032505 57 243 2.0 2.0 0.00 0.17 0.17 87 1015.1
20260905032005 57 225 1.0 2.0 0.00 0.17 0.17 87 1015.1
20260905031505 57 209 1.0 2.0 0.00 0.17 0.17 87 1015.0
20260905031004 58 209 1.0 2.0 0.00 0.17 0.17 87 1014.9
20260905030505 58 209 1.0 2.0 0.00 0.17 0.17 86 1014.8
20260905030005 58 180 1.0 2.0 0.00 0.17 0.17 86 1014.7
20260905025504 58 259 1.0 1.0 0.00 0.17 0.17 86 1014.7
20260905025005 59 0 0.0 0.0 0.00 0.17 0.17 86 1014.7
20260905024505 59 0 0.0 0.0 0.00 0.17 0.17 85 1014.7
20260905024004 59 0 0.0 0.0 0.00 0.17 0.17 85 1014.7
20260905023505 60 0 0.0 2.0 0.00 0.17 0.17 84 1014.7
20260905022505 61 151 0.0 1.0 0.00 0.17 0.17 84 1014.7
20260905022004 61 148 1.0 2.0 0.00 0.17 0.17 83 1014.7
20260905021505 61 238 0.0 1.0 0.00 0.17 0.17 82 1014.7
20260905021005 62 238 1.0 1.0 0.00 0.17 0.17 80 1014.6
20260905020505 63 239 1.0 1.0 0.00 0.17 0.17 78 1014.4
20260905020004 64 250 1.0 2.0 0.00 0.17 0.17 77 1014.5
20260905015504 64 239 1.0 1.0 0.00 0.17 0.17 77 1014.5
20260905015005 64 239 1.0 2.0 0.00 0.17 0.17 75 1014.5
20260905014505 65 269 1.0 2.0 0.00 0.17 0.17 72 1014.4
20260905014004 65 202 1.0 2.0 0.00 0.17 0.17 73 1014.3
20260905013504 65 201 1.0 2.0 0.00 0.17 0.17 73 1014.3
20260905013004 64 214 1.0 3.0 0.00 0.17 0.17 74 1014.2
20260905012504 64 219 1.0 3.0 0.00 0.17 0.17 74 1014.2
20260905012004 64 214 2.0 5.0 0.00 0.17 0.17 73 1014.1
20260905011505 65 233 1.0 3.0 0.00 0.17 0.17 72 1014.2
20260905011004 65 175 1.0 5.0 0.00 0.17 0.17 72 1014.1
20260905010505 65 192 3.0 6.0 0.00 0.17 0.17 71 1014.2
20260905010005 65 179 2.0 5.0 0.00 0.17 0.17 72 1014.2
20260905005505 64 176 2.0 5.0 0.00 0.17 0.17 74 1014.2
20260905004005 63 139 3.0 6.0 0.00 0.17 0.17 77 1014.3
20260905003504 62 174 2.0 6.0 0.00 0.17 0.17 78 1014.3
20260905002505 62 161 3.0 6.0 0.00 0.17 0.17 78 1014.3
20260905001004 63 144 3.0 7.0 0.00 0.17 0.17 76 1014.3
20260905000504 63 210 4.0 8.0 0.00 0.17 0.17 76 1014.2
20260905000005 63 207 5.0 9.0 0.00 0.17 0.17 76 1014.2
20260904235504 64 192 7.0 13.0 0.00 0.17 0.17 74 1014.0
20260904235005 64 199 5.0 9.0 0.00 0.17 0.17 74 1014.0
20260904234505 64 178 6.0 10.0 0.00 0.17 0.17 73 1013.9
20260904233504 65 194 3.0 9.0 0.00 0.17 0.17 75 1013.9
20260904233005 65 245 4.0 10.0 0.00 0.17 0.17 74 1013.8
20260904232505 65 203 3.0 8.0 0.00 0.17 0.17 73 1013.6
20260904232005 65 197 3.0 6.0 0.00 0.17 0.17 75 1013.6
20260904231504 65 201 3.0 6.0 0.00 0.17 0.17 76 1013.5
20260904231004 65 192 2.0 7.0 0.00 0.17 0.17 74 1013.5
20260904230504 65 202 4.0 8.0 0.00 0.17 0.17 72 1013.5
20260904225004 65 173 3.0 7.0 0.00 0.17 0.17 70 1013.4
20260904224504 65 136 3.0 5.0 0.00 0.17 0.17 68 1013.4
20260904224004 65 104 5.0 8.0 0.00 0.17 0.17 68 1013.4
20260904223505 65 173 1.0 5.0 0.00 0.17 0.17 70 1013.3
20260904223004 65 157 2.0 5.0 0.00 0.17 0.17 70 1013.3
20260904222504 65 100 3.0 6.0 0.01 0.17 0.17 70 1013.3
20260904222004 65 152 3.0 7.0 0.01 0.17 0.17 70 1013.3
20260904221505 65 144 2.0 5.0 0.01 0.17 0.17 71 1013.2
20260904221005 66 221 1.0 6.0 0.01 0.17 0.17 68 1013.3
20260904220504 66 131 3.0 6.0 0.01 0.17 0.17 72 1013.2
20260904220004 66 220 1.0 5.0 0.01 0.17 0.17 73 1013.2
20260904215504 66 180 2.0 3.0 0.02 0.17 0.17 72 1013.2
20260904215005 64 212 3.0 5.0 0.02 0.17 0.17 79 1013.2
20260904214505 63 271 2.0 3.0 0.02 0.17 0.17 78 1013.2
20260904214004 62 0 1.0 2.0 0.02 0.17 0.17 82 1013.2
20260904213504 62 268 1.0 2.0 0.02 0.17 0.17 82 1013.2
20260904213005 62 260 1.0 2.0 0.02 0.17 0.17 83 1013.1
20260904211005 62 263 0.0 2.0 0.01 0.16 0.16 82 1013.1
20260904210504 63 263 1.0 2.0 0.01 0.16 0.16 79 1013.0
20260904210005 63 271 1.0 1.0 0.01 0.16 0.16 77 1012.9
20260904205504 63 271 0.0 2.0 0.00 0.15 0.15 76 1012.9
20260904204504 64 333 1.0 2.0 0.00 0.16 0.15 74 1012.9
20260904204004 64 129 0.0 3.0 0.00 0.16 0.15 73 1012.9
20260904203005 64 315 1.0 2.0 0.00 0.16 0.15 79 1012.9
20260904202504 64 5 1.0 2.0 0.00 0.16 0.15 79 1013.0
20260904202005 63 344 1.0 2.0 0.00 0.16 0.15 81 1012.9
20260904201504 62 322 2.0 3.0 0.00 0.16 0.15 83 1013.0